Погода в Синтае

Китай     37°03′46″N   114°28′27″E
темп.,
°C
ветер,
м/с
пор.,
м/с
влажн.,
%
обл.,
%
осадки,
мм/ч
давл.,
гПа
погр.,
м
9 марта, вт
вт923:00+9ю4953100 0.0 1024317
02:00+8ю3559100 0.0 1024129
05:00+6ююз126532 0.0 102425
08:00+8ю006217 0.0 102550
11:00+13юв22470 0.0 1025444
14:00+18ююв33350 0.0 10231038
17:00+18ююв45350 0.0 10231144
20:00+14ю48510 0.0 1025201
10 марта, ср
ср1023:00+12ю410580 0.0 1026278
02:00+10ю510670 0.0 1026243
05:00+8ю47771 0.0 1026158
08:00+9ю487551 0.0 1027311
11:00+15ю6952100 0.0 1026907
14:00+17ю7942100 0.0 10231525
17:00+17ю5743100 0.0 10221355
20:00+14ююв3750100 0.0 1023245
11 марта, чт
чт1123:00+13ююз3657100 0.0 1024187
02:00+11ю376894 0.0 1023163
05:00+10ю237942 0.0 102349
08:00+10ю368221 0.0 1024232
11:00+16ю44560 0.0 1024910
14:00+18ю43432 0.0 10211494
17:00+18ююв554810 0.0 10201125
20:00+14ю510635 0.0 1022401
12 марта, пт
пт1223:00+12ю5117132 0.0 1023484
02:00+10ю5107822 0.0 1023369
05:00+9ю48870 0.0 1023265
08:00+10ю47860 0.0 1024291
11:00+16ю68602 0.0 1023645
14:00+19ю68461 0.0 10201283
17:00+19ююв79460 0.0 10181186
20:00+15ююв511564 0.0 1020454
13 марта, сб
сб1323:00+14ю4106388 0.0 1021347
02:00+12ююз237444 0.0 102061
05:00+10с510760 0.0 1021313
08:00+10ссв69780 0.0 1022420
11:00+15ссв44570 0.0 1021764
14:00+18св22480 0.0 10181119
17:00+19ююв33450 0.0 10161282
20:00+16юв346214 0.0 1017180